小惑星A/2017 U7

A/2017 U7

English version
Home page
Updated on December 1, 2019

---------------------------------------------------------------------

・ プロフィール

発見日 2017年10月29日
発見光度 20.1等
発見者 Pan-STARRS 1 telescope (Haleakala)

・ 写真集

・ 軌道要素

Epoch 2019 Aug. 25.0 TT = JDT 2458720.5
T 2019 Sept. 11.28259 TT                                Williams
q   6.4172646            (2000.0)            P               Q
z  -0.0001184      Peri.  326.03236     +0.53147905     -0.59460920
 +/-0.0000006      Node   276.23237     -0.57730995     -0.77545475
e   1.0007600      Incl.  142.63532     -0.61987356     +0.21239075
H    8.3
From 412 observations 2017 Aug. 18-2019 Oct. 25, mean residual 0".4.

・ 星図

・ 光度変化

        m1 = -12 + 5 logΔ + 30 log r

---------------------------------------------------------------------

軌道要素はM.P.E.C. 2019-V116に掲載されたものです。
星図はステラナビゲータ Ver.10 (アストロアーツ) で作成したものです。
光度グラフはComet for Windowsで作成したものです。

---------------------------------------------------------------------

Copyright(C) Seiichi Yoshida (comet@aerith.net). All rights reserved.